Talkeetna, AK

5:15 AM AKST on November 24, 2017 (GMT -0900)
Talkeetna

Weather History for PATK - December, 2012

Change the Weather History Date:

Tuesday, December 18, 2012

  Actual Average Record
Temperature  
Mean Temperature 0 °F -  
Max Temperature 8 °F 22 °F 43 °F (2004)
Min Temperature -9 °F 4 °F -37 °F (1965)
Degree Days  
Heating Degree Days 66    
Moisture  
Dew Point -11 °F    
Average Humidity 49    
Maximum Humidity 71    
Minimum Humidity 25    
Precipitation  
Precipitation 0.00 in - - ()
Sea Level Pressure  
Sea Level Pressure 29.50 in    
Wind  
Wind Speed 9 mph (North)    
Max Wind Speed 18 mph    
Max Gust Speed 24 mph    
Visibility 10 miles    
Events      
Averages and records for this station are not official NWS values.
T = Trace of Precipitation, MM = Missing Value Source: NWS Daily Summary

Daily Weather History Graph

Daily Weather History Graph

Search for Another Location

Airport or City:

Trip Planner

Search our weather history database for the weather conditions in past years. The results will help you decide how hot, cold, wet, or windy it might be!

Date:

Astronomy

Dec. 18, 2012 Rise Set
Actual Time 10:26 AM AKST 3:28 PM AKST
Civil Twilight 9:19 AM AKST 4:35 PM AKST
Nautical Twilight 8:16 AM AKST 5:38 PM AKST
Astronomical Twilight 7:20 AM AKST 6:34 PM AKST
Moon 12:14 PM AKST (12/18) No Moon Set
Length of Visible Light 7h 16m
Length of Day
5h 01m
Waxing Crescent, 36% of the Moon is Illuminated
Dec 18
Waxing Crescent
Dec 19
First Quarter
Dec 28
Full
Jan 4
Last Quarter
Jan 11
New

Hourly Weather History & Observations

Time (AKST) Temp. Windchill Dew Point Humidity Pressure Visibility Wind Dir Wind Speed Gust Speed Precip Events Conditions
12:53 AM -9.9 °F -19.2 °F -17.0 °F 71% 29.60 in 10.0 mi Variable 3.5 mph - N/A   Clear
1:53 AM -0.9 °F -16.4 °F -15.0 °F 52% 29.57 in 10.0 mi NNE 9.2 mph - N/A   Clear
3:53 AM 1.9 °F -16.2 °F -13.0 °F 50% 29.54 in 10.0 mi NNE 13.8 mph 21.9 mph N/A   Clear
4:53 AM 3.0 °F -12.5 °F -14.1 °F 45% 29.53 in 10.0 mi NNE 10.4 mph 20.7 mph N/A   Clear
5:53 AM 3.0 °F -13.3 °F -13.0 °F 47% 29.52 in 10.0 mi NNE 11.5 mph 19.6 mph N/A   Clear
6:53 AM 3.9 °F -13.0 °F -13.0 °F 46% 29.52 in 10.0 mi NNE 12.7 mph - N/A   Clear
7:53 AM 3.9 °F -15.6 °F -13.0 °F 46% 29.52 in 10.0 mi NNE 17.3 mph 21.9 mph N/A   Clear
8:53 AM 5.0 °F -14.7 °F -13.0 °F 43% 29.51 in 10.0 mi NNE 18.4 mph 24.2 mph N/A   Clear
9:53 AM 5.0 °F -10.0 °F -11.9 °F 46% 29.52 in 10.0 mi NNE 10.4 mph 20.7 mph N/A   Clear
10:53 AM 5.0 °F -8.1 °F -11.9 °F 46% 29.52 in 10.0 mi NNE 8.1 mph 20.7 mph N/A   Clear
11:53 AM 5.0 °F -11.6 °F -11.9 °F 46% 29.51 in 10.0 mi NNE 12.7 mph 18.4 mph N/A   Clear
12:53 PM 5.0 °F -10.0 °F -11.9 °F 46% 29.50 in 10.0 mi North 10.4 mph - N/A   Partly Cloudy
1:53 PM 7.0 °F -8.3 °F -11.0 °F 44% 29.49 in 10.0 mi North 11.5 mph 20.7 mph N/A   Clear
2:53 PM 7.0 °F -5.7 °F -11.9 °F 42% 29.48 in 10.0 mi North 8.1 mph 23.0 mph N/A   Clear
3:53 PM 7.0 °F -5.7 °F -9.9 °F 46% 29.48 in 10.0 mi North 8.1 mph 17.3 mph N/A   Clear
4:53 PM 6.1 °F -4.3 °F -6.0 °F 58% 29.48 in 10.0 mi Variable 5.8 mph - N/A   Clear
5:53 PM 6.1 °F -4.3 °F -6.0 °F 58% 29.49 in 10.0 mi NNW 5.8 mph - N/A   Clear
6:53 PM 6.1 °F -5.6 °F -8.0 °F 53% 29.49 in 10.0 mi North 6.9 mph - N/A   Clear
7:53 PM 7.0 °F -5.7 °F -9.0 °F 48% 29.48 in 10.0 mi North 8.1 mph - N/A   Clear
8:53 PM 7.0 °F -4.5 °F -8.0 °F 51% 29.47 in 10.0 mi North 6.9 mph - N/A   Clear
9:53 PM 6.1 °F -4.3 °F -5.1 °F 60% 29.48 in 10.0 mi North 5.8 mph - N/A   Clear
10:53 PM 5.0 °F -2.1 °F -4.0 °F 66% 29.48 in 10.0 mi North 3.5 mph - N/A   Clear
11:53 PM 7.0 °F -1.7 °F -7.1 °F 53% 29.49 in 10.0 mi North 4.6 mph - N/A   Clear